x

Buoy E01 - Central Maine Shelf (44032) Wave Buoy

4:04 - Fri 19th Dec 2014 All times are EST. -5 hours from GMT.

  • Sig Wave height 2.0ft
  • Peak Period 4s
  • Wind
    18mph, 22mph gusts
  • Sea Temp 45°f
  • Luft Temp 35°f
  • Sea Pressure 1008.6mb
  • Buoy E01 - Central Maine Shelf
  • Buoy E01 - Central Maine Shelf

More Historic Weather Station data

Upgrade to MSW Pro to gain access to the past 30 days of data for over 8000 Wavebouys and Weather Stations around the globe.

Join Pro

Comparision Forecast

View Surf forecast
   
Fr 12/19 4:04 2ft 4s 18 22 mph 1008.6mb 45f 35f
3:04 2.5ft 3s 20 22 mph 1008.6mb 45f 36f
2:04 3ft 5s 22 27 mph 1008.6mb 46f 36f
1:04 3ft 4s 22 27 mph 1008.1mb 46f 36f
12:04 3.5ft 4s 22 27 mph 1007.6mb 45f 37f
Do 12/18 11:04 3.5ft 4s 25 31 mph 1007.6mb 45f 37f
10:04 3.5ft 5s 25 31 mph 1007.2mb 45f 37f
9:04 3.5ft 4s 27 31 mph 1007mb 46f 37f
8:04 3.5ft 4s 25 31 mph 1006.9mb 46f 37f
7:04 3.5ft 4s 27 31 mph 1006.3mb 46f 38f
6:04 3.5ft 4s 25 29 mph 1006.1mb 46f 39f
5:04 3.5ft 4s 27 31 mph 1005.6mb 46f 40f
4:04 3.5ft 3s 25 34 mph 1004.8mb 46f 40f
3:04 3.5ft 5s 22 27 mph 1004.4mb 46f 40f
2:04 3ft 3s 22 27 mph 1003.8mb 47f 40f
1:04 3.5ft 5s 20 27 mph 1003.5mb 47f 40f
12:04 3.5ft 4s 22 34 mph 1003.5mb 47f 39f
11:04 4ft 5s 25 34 mph 1003.6mb 47f 39f
10:04 4ft 5s 16 27 mph 1003.4mb 47f 39f
9:04 2.5ft 5s 22 27 mph 1002.9mb 47f 39f
8:04 3ft 6s 22 27 mph 1002.4mb 47f 38f
7:04  -   -  22 27 mph 1002mb 47f 39f
6:04 3.5ft 8s 16 20 mph 1001.9mb 47f 39f
5:04 3.5ft 8s 13 16 mph 1002mb 47f 38f
4:04 4ft 8s 13 18 mph 1002.1mb 47f 38f
3:04 4.5ft 8s 18 22 mph 1002mb 47f 38f
2:04 4.5ft 8s 20 25 mph 1002mb 47f 38f
1:04 5ft 8s 20 25 mph 1001.9mb 47f 38f
12:04 6ft 8s 20 22 mph 1002.1mb 47f 38f
Mi 12/17 11:04 7ft 8s 18 20 mph 1002.1mb 47f 39f
10:04 6ft 8s 22 27 mph 1001.8mb 48f 39f
9:04 7.5ft 8s 25 29 mph 1002.1mb 48f 40f
8:04 7.5ft 8s 29 31 mph 1001.8mb 48f 40f
7:04 9ft 8s 25 31 mph 1002mb 48f 41f
6:04 10ft 8s 22 27 mph 1001.7mb 48f 43f
5:04 9ft 8s 22 31 mph 1001mb 48f 46f
4:04 8.5ft 8s 20 22 mph 1001.1mb 48f 47f
3:04 10ft 8s 20 27 mph 1000.9mb 48f 48f
2:04 9ft 8s 22 27 mph 1001.4mb 48f 48f
1:04  -   -  25 31 mph 1002mb - 49f
12:04 8ft 6s 25 31 mph 1003.2mb 48f 48f
11:04 7.5ft 6s 25 29 mph 1004.6mb 48f 48f
10:04 6ft 5s 25 29 mph 1006.2mb 48f 48f
9:04 5ft 5s 25 31 mph 1007.2mb 48f 48f
8:04 4.5ft 5s 25 29 mph 1007.7mb 48f 47f
7:04 4.5ft 5s 22 27 mph 1008.7mb 48f 47f
6:04 3.5ft 5s 22 27 mph 1009.8mb 48f 47f
5:04 3ft 5s 20 22 mph 1010.3mb 48f 47f
4:04 2.5ft 4s 16 18 mph 1011.6mb 47f 47f
3:04 2.5ft 4s 13 18 mph 1012.7mb 47f 47f
2:04 1.6ft 3s 11 13 mph 1013.6mb 46f 45f
1:04 2ft 11s 13 16 mph 1014.1mb 46f 43f
12:04 1.6ft 11s 9 11 mph 1014.9mb 47f 43f
Di 12/16 11:04 2ft 11s 9
mph
1015.5mb 47f 43f
10:04 2.5ft 11s 7 9 mph 1015.9mb 47f 42f
9:04 2ft 11s 2 4 mph 1016.2mb 47f 42f
8:04 1.3ft 4s 2
mph
1016.6mb 47f 41f
7:04 1.3ft 3s 7
mph
1017mb 47f 41f
6:04 1.6ft 3s 9 11 mph 1017.5mb 47f 41f
5:04 1.6ft 3s 13 16 mph 1017.6mb 47f 42f
4:04 1.6ft 3s 13 18 mph 1017.5mb 47f 45f
3:04 1.6ft 3s 9 11 mph 1017.9mb 47f 44f
2:04 1.3ft 3s 11 13 mph 1018.1mb 47f 43f
1:04 1.6ft 3s 7 9 mph 1018.7mb 47f 43f
12:04 1.6ft 5s 11 16 mph 1019.5mb 47f 42f
11:04  -   -  11 13 mph 1020.3mb 47f 42f
10:04 2.5ft 11s 9 11 mph 1021.1mb 47f 41f
9:04 2ft 11s 9 16 mph 1021.3mb 47f 40f
8:04 2ft 11s 7 9 mph 1020.8mb 47f 40f
7:04 1.6ft 11s 4 7 mph 1020.6mb 47f 39f
6:04 1.3ft 11s 7 9 mph 1020.5mb 46f 38f
5:04 1.6ft 11s 4 11 mph 1020.8mb 48f 37f
4:04 1.6ft 11s 4 9 mph 1020.8mb 48f 36f
3:04 1.6ft 11s 7 9 mph 1020.8mb 47f 36f
2:04 2ft 11s 9 11 mph 1021.1mb 47f 35f
1:04 1.6ft 11s 9 11 mph 1021mb 47f 35f
12:04 2ft 11s 4 9 mph 1021mb 47f 35f
Mo 12/15 11:04 2ft 11s 7 9 mph 1021.1mb 47f 35f
10:04 2ft 11s 11 13 mph 1020.8mb 47f 35f
9:04 2.5ft 11s 9 13 mph 1020.6mb 47f 35f
8:04  -   -  9 11 mph 1020.5mb 47f 35f
7:04 2.5ft 11s 9 11 mph 1019.9mb 47f 35f
6:04 1.3ft 4s 7 9 mph 1019mb 47f 35f
5:04 1.3ft 5s 9 11 mph 1018.6mb 47f 35f
4:04 1.6ft 4s 9 11 mph 1017.9mb 47f 36f
3:04 1.6ft 3s 13 20 mph 1017.3mb 47f 36f
2:04 1.3ft 4s 11 16 mph 1016.5mb 47f 36f
1:04 1.3ft 3s 9 11 mph 1016.3mb 47f 37f
12:04 1.3ft 3s 11 13 mph 1016.2mb 47f 37f